Regional Weather Roundup
Issued by NWS

Home | Current Version | Previous Version | Text Only | Print | Product List | Glossary Off
Versions: 1 2 3 4 5 6 7 8 9 10 11 12 13 14 15 16 17 18 19 20 21 22 23 24 25 26 27 28 29 30 31 32 33 34 35 36 37 38 39 40 41 42 43 44 45 46 47 48 49 50

000
ASUS43 KLSX 300607
RWRMO

WEATHER SUMMARY FOR MISSOURI
NATIONAL WEATHER SERVICE SPRINGFIELD MO
100 AM CDT SAT MAY 30 2015

NOTE: "FAIR" INDICATES FEW OR NO CLOUDS BELOW 12,000 FEET WITH NO
       SIGNIFICANT WEATHER AND/OR OBSTRUCTIONS TO VISIBILITY.
       CURRENT SKY AND/OR WEATHER CONDITIONS ARE NOT AVAILABLE FOR
       CHILLICOTHE AND FARMINGTON.

MOZ001>031-035>038-043-044-053-054-300700-
...NORTHERN AND WESTERN MISSOURI...

CITY           SKY/WX    TMP DP  RH WIND       PRES   REMARKS
KANSAS CTY INT CLOUDY    63  63 100 CALM      29.97F
6HR MIN TEMP:  62; 6HR MAX TEMP:  69;

KANSAS C DTWN  CLOUDY    66  63  90 CALM      29.97F
6HR MIN TEMP:  66; 6HR MAX TEMP:  71;

LEE`S SUMMIT   CLOUDY    64  62  93 S5        29.98F
6HR MIN TEMP:  63; 6HR MAX TEMP:  70;

ST JOSEPH      LGT RAIN  66  62  87 N10       29.98S
6HR MIN TEMP:  66; 6HR MAX TEMP:  71; 6HR PCP: TRACE;

CHILLICOTHE      N/A     67  64  90 CALM      29.99R
6HR MIN TEMP:  66; 6HR MAX TEMP:  70;

KIRKSVILLE     CLOUDY    66  66 100 S6        29.99S
6HR MIN TEMP:  66; 6HR MAX TEMP:  71; 6HR PCP: TRACE;


$$
MOZ066>068-077>081-088>096-101>105-300700-
...SOUTHWEST MISSOURI...

CITY           SKY/WX    TMP DP  RH WIND       PRES   REMARKS
SPRINGFIELD    LGT RAIN  67  65  93 E7        29.96S
6HR MIN TEMP:  67; 6HR MAX TEMP:  68; 6HR PCP:  0.53;

JOPLIN         CLOUDY    64  64 100 NW7       29.98R
6HR MIN TEMP:  63; 6HR MAX TEMP:  65; 6HR PCP:  0.01;


$$
MOZ032>034-039>042-045>050-055>058-069>072-300700-
...CENTRAL MISSOURI...

CITY           SKY/WX    TMP DP  RH WIND       PRES   REMARKS
COLUMBIA       LGT RAIN  67  65  93 NE5       29.97F
6HR MIN TEMP:  66; 6HR MAX TEMP:  71; 6HR PCP:  0.58;

JEFFERSON CITY LGT RAIN  68  65  90 E3        29.96F
6HR MIN TEMP:  67; 6HR MAX TEMP:  70; 6HR PCP:  0.64;

ROLLA          LGT RAIN  65  64  97 S6        29.97F
6HR MIN TEMP:  64; 6HR MAX TEMP:  69; 6HR PCP:  1.67;

SEDALIA        CLOUDY    66  64  93 E3        29.98S
6HR MIN TEMP:  66; 6HR MAX TEMP:  71; 6HR PCP:  0.15;

WHITEMAN AFB   CLOUDY    66  66 100 N3        29.96F
WARRENSBURG    FOG       63  63 100 CALM      29.97F VSB 1/2
OSAGE BEACH    CLOUDY    66  64  94 CALM      29.97S

$$
MOZ051-052-059>065-300700-
...EAST CENTRAL MISSOURI...

CITY           SKY/WX    TMP DP  RH WIND       PRES   REMARKS
ST LOUIS INTL  CLOUDY    71  68  90 E5        29.98F
6HR MIN TEMP:  71; 6HR MAX TEMP:  79; 6HR PCP:  0.08;

SPIRIT OF STL  CLOUDY    68  68 100 CALM      29.95F
6HR MIN TEMP:  68; 6HR MAX TEMP:  78; 6HR PCP:  0.59;

ST CHARLES     CLOUDY    68  66  93 E6        29.96F
6HR MIN TEMP:  67; 6HR MAX TEMP:  79; 6HR PCP:  0.73;


$$
MOZ072>076-082>087-097>100-106>115-300700-
...SOUTH CENTRAL AND SOUTHEAST MISSOURI...

CITY           SKY/WX    TMP DP  RH WIND       PRES   REMARKS
CAPE GIRARDEAU MOCLDY    73  70  90 SE6       29.99S
6HR MIN TEMP:  73; 6HR MAX TEMP:  80;

FARMINGTON     CLOUDY    68  66  94 SE6       30.02F
6HR MIN TEMP:  68; 6HR MAX TEMP:  70; 6HR PCP:  0.12;

POPLAR BLUFF   MOCLDY    72  67  84 SE6       29.96F
6HR MIN TEMP:  72; 6HR MAX TEMP:  79;

WEST PLAINS    RAIN      66  64  93 NE3       29.99F
6HR MIN TEMP:  66; 6HR MAX TEMP:  73; 6HR PCP:  0.52;


$$


USA.gov is the U.S. government's official web portal to all federal, state and local government web resources and services.